Regional Weather Roundup
Issued by NWS

Home | Current Version | Previous Version | Text Only | Print | Product List | Glossary Off
Versions: 1 2 3 4 5 6 7 8 9 10 11 12 13 14 15 16 17 18 19 20 21 22 23 24 25 26 27 28 29 30 31 32 33 34 35 36 37 38 39 40 41 42 43 44 45 46 47 48 49 50

157
ASUS43 KFSD 181710
RWRSD

WEATHER ROUNDUP FOR SOUTH DAKOTA
NATIONAL WEATHER SERVICE SIOUX FALLS SD
1200 PM CDT FRI AUG 18 2017

NOTE: "FAIR" INDICATES FEW OR NO CLOUDS BELOW 12,000 FEET WITH NO
SIGNIFICANT WEATHER AND/OR OBSTRUCTIONS TO VISIBILITY.


SDZ001>005-009-010-012>017-181800-
NORTHWEST AND NORTH CENTRAL SOUTH DAKOTA

CITY           SKY/WX    TMP DP  RH WIND       PRES   REMARKS
BUFFALO          N/A     77  49  37 CALM      29.99S
FAITH            N/A     78  47  33 MISG      30.01S
MOBRIDGE       MOSUNNY   75  59  57 N14G22    29.94S
$$

SDZ012>016-024>037-041>051-057-063-072>074-181800-
SOUTHWEST AND SOUTH CENTRAL SOUTH DAKOTA

CITY           SKY/WX    TMP DP  RH WIND       PRES   REMARKS
RAPID CTY ARPT SUNNY     78  47  33 N10       30.07R
PIERRE         MOSUNNY   77  55  46 NW13      29.95S
CUSTER         SUNNY     74  36  25 W13G21    30.19S
ELLSWORTH AFB  SUNNY     77  47  34 N8        30.06R
PHILIP         SUNNY     81  51  35 NE6       30.00F
PINE RIDGE     SUNNY     78  51  38 W7        30.07F
SPEARFISH      FAIR      79  41  25 VRB6G13   30.10S
WINNER         FAIR      77  58  51 NW15      29.97R
$$

SDZ004>011-016>023-039-040-181800-
NORTHEAST SOUTH DAKOTA

CITY           SKY/WX    TMP DP  RH WIND       PRES   REMARKS
ABERDEEN       PTSUNNY   69  60  73 NW14      29.90R
WATERTOWN      SUNNY     75  61  61 SW14      29.90S
BROOKINGS      SUNNY     73  60  63 S12       29.92F
SISSETON         N/A     67  63  87 NE8       29.90R
$$

SDZ017-020-022-023-036>040-048>070-181800-
SOUTHEAST SOUTH DAKOTA

CITY           SKY/WX    TMP DP  RH WIND       PRES   REMARKS
SIOUX FALLS    MOSUNNY   75  62  64 S9        29.93F
HURON          SUNNY     75  64  68 MISG      29.91S
CHAMBERLAIN    SUNNY     75  63  66 W9        29.95S
MITCHELL       SUNNY     75  63  66 S6        29.91S
YANKTON        SUNNY     75  61  61 VRB6      29.94F
$$

ABBREVIATIONS USED IN REMARKS
   TC - TEMPERATURE IN CELSIUS
  WCI - WIND CHILL INDEX
   HX - HEAT INDEX
  VSB - VISIBILITY





USA.gov is the U.S. government's official web portal to all federal, state and local government web resources and services.